sat.trackr.live / text

‹ back to catalog

HULIANWANG DIGUI-06

NORAD 62328 · 2024-240F

PAYLOAD ACTIVE UNKNOWN

§ Identity

Operator
Country
PRC
Launch date
2024-12-16
Launch site
WSC
Launch vehicle
Mass (kg)
RCS (m²)

External: N2YO · Heavens-Above · Gunter

§ Orbital elements

Epoch: 2026-09-22T20:54:25.355520Z

Period
108.73 min
Inclination
86.4961°
Eccentricity
0.0001548
Mean motion
13.24411471 rev/d
Perigee alt
1,166.7 km
Apogee alt
1,169.1 km
Semi-major
7,546.1 km
B*
3.0838e-5
RAAN
310.1517°
Arg perigee
85.5847°
Mean anomaly
274.5463°
Rev number
8,557

§ Raw data

HULIANWANG DIGUI-061 62328U 24240F   26265.87112680  .00000028  00000+0  30838-4 0  99922 62328  86.4961 310.1517 0001548  85.5847 274.5463 13.24411471 85574

JSON: /api/v1/satellites/62328 · /tle

For live sub-satellite position, see the globe view (requires WebGL).

§ Visibility from observer

Set your observer location to see the next 7 days of passes ≥ 10°. The values pass through the URL so the page stays shareable.

No JS? Fill the form by hand. The geolocation button needs JavaScript.